| time (UTC) | temp F | wind direction | speed MPH | gust MPH | rain 1hr in | rain 24hr in | rain mn in | humidity % | barometer mb |
| 20260510170506 | 80 | 10 | 6.0 | 10.0 | 0.00 | 0.00 | 0.00 | 29 | 1016.2 |
| 20260510170005 | 80 | 28 | 4.0 | 9.0 | 0.00 | 0.00 | 0.00 | 28 | 1016.2 |
| 20260510165506 | 79 | 176 | 4.0 | 11.0 | 0.00 | 0.00 | 0.00 | 36 | 1016.3 |
| 20260510165026 | 79 | 39 | 8.0 | 14.0 | 0.00 | 0.00 | 0.00 | 27 | 1016.3 |
| 20260510164505 | 80 | 19 | 8.0 | 14.0 | 0.00 | 0.00 | 0.00 | 29 | 1016.2 |
| 20260510164005 | 79 | 9 | 6.0 | 12.0 | 0.00 | 0.00 | 0.00 | 30 | 1016.2 |
| 20260510163506 | 79 | 41 | 2.0 | 12.0 | 0.00 | 0.00 | 0.00 | 28 | 1016.2 |
| 20260510163005 | 78 | 336 | 3.0 | 11.0 | 0.00 | 0.00 | 0.00 | 31 | 1016.2 |
| 20260510162527 | 79 | 31 | 6.0 | 12.0 | 0.00 | 0.00 | 0.00 | 28 | 1016.2 |
| 20260510162007 | 79 | 2 | 2.0 | 12.0 | 0.00 | 0.00 | 0.00 | 35 | 1016.2 |
| 20260510161506 | 79 | 11 | 2.0 | 12.0 | 0.00 | 0.00 | 0.00 | 36 | 1016.2 |
| 20260510161006 | 79 | 17 | 7.0 | 12.0 | 0.00 | 0.00 | 0.00 | 35 | 1016.1 |
| 20260510160506 | 78 | 21 | 5.0 | 12.0 | 0.00 | 0.00 | 0.00 | 37 | 1016.3 |
| 20260510160006 | 78 | 23 | 2.0 | 12.0 | 0.00 | 0.00 | 0.00 | 33 | 1016.4 |
| 20260510155506 | 78 | 16 | 6.0 | 11.0 | 0.00 | 0.00 | 0.00 | 39 | 1016.2 |
| 20260510155005 | 78 | 38 | 4.0 | 9.0 | 0.00 | 0.00 | 0.00 | 38 | 1016.3 |
| 20260510154505 | 77 | 348 | 3.0 | 8.0 | 0.00 | 0.00 | 0.00 | 39 | 1016.2 |
| 20260510154005 | 77 | 333 | 2.0 | 15.0 | 0.00 | 0.00 | 0.00 | 40 | 1016.2 |
| 20260510153506 | 76 | 360 | 4.0 | 15.0 | 0.00 | 0.00 | 0.00 | 40 | 1016.2 |
| 20260510153006 | 77 | 15 | 7.0 | 14.0 | 0.00 | 0.00 | 0.00 | 39 | 1016.2 |
| 20260510152505 | 76 | 36 | 4.0 | 9.0 | 0.00 | 0.00 | 0.00 | 41 | 1016.3 |
| 20260510152005 | 76 | 286 | 2.0 | 7.0 | 0.00 | 0.00 | 0.00 | 42 | 1016.3 |
| 20260510151527 | 76 | 357 | 2.0 | 8.0 | 0.00 | 0.00 | 0.00 | 40 | 1016.2 |
| 20260510151027 | 76 | 351 | 4.0 | 9.0 | 0.00 | 0.00 | 0.00 | 39 | 1016.2 |
| 20260510150505 | 76 | 15 | 5.0 | 11.0 | 0.00 | 0.00 | 0.00 | 43 | 1016.2 |
| 20260510150005 | 75 | 37 | 4.0 | 11.0 | 0.00 | 0.00 | 0.00 | 41 | 1016.2 |
| 20260510145505 | 75 | 24 | 6.0 | 12.0 | 0.00 | 0.00 | 0.00 | 40 | 1016.3 |
| 20260510145026 | 75 | 13 | 5.0 | 12.0 | 0.00 | 0.00 | 0.00 | 41 | 1016.3 |
| 20260510144505 | 75 | 35 | 8.0 | 15.0 | 0.00 | 0.00 | 0.00 | 43 | 1016.2 |
| 20260510144005 | 74 | 31 | 9.0 | 15.0 | 0.00 | 0.00 | 0.00 | 48 | 1016.2 |
| 20260510143505 | 74 | 30 | 8.0 | 14.0 | 0.00 | 0.00 | 0.00 | 46 | 1016.3 |
| 20260510143005 | 74 | 8 | 1.0 | 10.0 | 0.00 | 0.00 | 0.00 | 59 | 1016.3 |
| 20260510142506 | 74 | 7 | 2.0 | 10.0 | 0.00 | 0.00 | 0.00 | 51 | 1016.3 |
| 20260510142006 | 74 | 26 | 5.0 | 10.0 | 0.00 | 0.00 | 0.00 | 53 | 1016.3 |
| 20260510141526 | 74 | 354 | 2.0 | 10.0 | 0.00 | 0.00 | 0.00 | 57 | 1016.3 |
| 20260510141006 | 74 | 219 | 2.0 | 6.0 | 0.00 | 0.00 | 0.00 | 57 | 1016.2 |
| 20260510140505 | 73 | 36 | 2.0 | 6.0 | 0.00 | 0.00 | 0.00 | 60 | 1016.3 |
| 20260510140007 | 73 | 347 | 1.0 | 3.0 | 0.00 | 0.00 | 0.00 | 60 | 1016.3 |
| 20260510135506 | 73 | 317 | 0.0 | 4.0 | 0.00 | 0.00 | 0.00 | 60 | 1016.2 |
| 20260510135005 | 72 | 27 | 2.0 | 4.0 | 0.00 | 0.00 | 0.00 | 63 | 1016.1 |
| 20260510134505 | 72 | 8 | 2.0 | 7.0 | 0.00 | 0.00 | 0.00 | 62 | 1016.3 |
| 20260510134027 | 72 | 13 | 4.0 | 7.0 | 0.00 | 0.00 | 0.00 | 61 | 1016.2 |
| 20260510133505 | 72 | 4 | 1.0 | 5.0 | 0.00 | 0.00 | 0.00 | 70 | 1016.2 |
| 20260510133026 | 71 | 5 | 1.0 | 7.0 | 0.00 | 0.00 | 0.00 | 67 | 1016.2 |
| 20260510132506 | 70 | 355 | 4.0 | 7.0 | 0.00 | 0.00 | 0.00 | 69 | 1016.2 |
| 20260510132005 | 70 | 6 | 2.0 | 4.0 | 0.00 | 0.00 | 0.00 | 75 | 1016.2 |
| 20260510131506 | 69 | 4 | 2.0 | 4.0 | 0.00 | 0.00 | 0.00 | 72 | 1016.2 |
| 20260510131005 | 68 | 5 | 1.0 | 7.0 | 0.00 | 0.00 | 0.00 | 75 | 1016.2 |
| 20260510130506 | 67 | 6 | 2.0 | 7.0 | 0.00 | 0.00 | 0.00 | 77 | 1016.2 |
| 20260510130005 | 67 | 7 | 1.0 | 4.0 | 0.00 | 0.00 | 0.00 | 79 | 1016.1 |
| 20260510125505 | 67 | 18 | 3.0 | 4.0 | 0.00 | 0.00 | 0.00 | 79 | 1016.1 |
| 20260510125005 | 66 | 61 | 2.0 | 3.0 | 0.00 | 0.00 | 0.00 | 81 | 1016.1 |
| 20260510124505 | 66 | 79 | 1.0 | 3.0 | 0.00 | 0.00 | 0.00 | 86 | 1016.0 |
| 20260510124005 | 65 | 79 | 1.0 | 3.0 | 0.00 | 0.00 | 0.00 | 83 | 1016.0 |
| 20260510123526 | 64 | 127 | 0.0 | 2.0 | 0.00 | 0.00 | 0.00 | 86 | 1016.0 |
| 20260510123007 | 63 | 127 | 0.0 | 2.0 | 0.00 | 0.00 | 0.00 | 89 | 1015.8 |
| 20260510122506 | 63 | 127 | 1.0 | 2.0 | 0.00 | 0.00 | 0.00 | 91 | 1015.8 |
| 20260510122006 | 62 | 155 | 2.0 | 2.0 | 0.00 | 0.00 | 0.00 | 92 | 1015.6 |
| 20260510121527 | 61 | 162 | 1.0 | 2.0 | 0.00 | 0.00 | 0.00 | 92 | 1015.5 |
| 20260510121005 | 61 | 162 | 1.0 | 2.0 | 0.00 | 0.00 | 0.00 | 92 | 1015.5 |
| 20260510120505 | 61 | 162 | 1.0 | 2.0 | 0.00 | 0.00 | 0.00 | 93 | 1015.4 |
| 20260510120006 | 60 | 162 | 1.0 | 2.0 | 0.00 | 0.00 | 0.00 | 93 | 1015.2 |
| 20260510115507 | 60 | 185 | 1.0 | 2.0 | 0.00 | 0.00 | 0.00 | 93 | 1015.2 |
| 20260510115005 | 60 | 210 | 0.0 | 2.0 | 0.00 | 0.00 | 0.00 | 93 | 1015.1 |
| 20260510114506 | 59 | 0 | 0.0 | 2.0 | 0.00 | 0.00 | 0.00 | 93 | 1015.1 |
| 20260510114006 | 58 | 210 | 0.0 | 2.0 | 0.00 | 0.00 | 0.00 | 93 | 1015.1 |
| 20260510113527 | 58 | 210 | 0.0 | 1.0 | 0.00 | 0.00 | 0.00 | 93 | 1015.0 |
| 20260510113027 | 58 | 210 | 0.0 | 1.0 | 0.00 | 0.00 | 0.00 | 93 | 1014.9 |
| 20260510112505 | 57 | 0 | 0.0 | 0.0 | 0.00 | 0.00 | 0.00 | 93 | 1014.9 |
| 20260510112007 | 57 | 0 | 0.0 | 0.0 | 0.00 | 0.00 | 0.00 | 93 | 1015.0 |
| 20260510111505 | 56 | 0 | 0.0 | 0.0 | 0.00 | 0.00 | 0.00 | 93 | 1014.9 |
| 20260510111006 | 56 | 0 | 0.0 | 0.0 | 0.00 | 0.00 | 0.00 | 93 | 1014.7 |
| 20260510110526 | 56 | 0 | 0.0 | 0.0 | 0.00 | 0.00 | 0.00 | 93 | 1014.7 |
| 20260510110005 | 56 | 0 | 0.0 | 0.0 | 0.00 | 0.00 | 0.00 | 92 | 1014.7 |
| 20260510105526 | 56 | 0 | 0.0 | 1.0 | 0.00 | 0.00 | 0.00 | 92 | 1014.7 |
| 20260510105007 | 56 | 210 | 0.0 | 1.0 | 0.00 | 0.00 | 0.00 | 92 | 1014.6 |
| 20260510104506 | 56 | 0 | 0.0 | 0.0 | 0.00 | 0.00 | 0.00 | 92 | 1014.5 |
| 20260510104007 | 56 | 0 | 0.0 | 0.0 | 0.00 | 0.00 | 0.00 | 93 | 1014.5 |
| 20260510103526 | 56 | 0 | 0.0 | 0.0 | 0.00 | 0.00 | 0.00 | 93 | 1014.3 |
| 20260510103005 | 56 | 0 | 0.0 | 0.0 | 0.00 | 0.00 | 0.00 | 92 | 1014.3 |
| 20260510102506 | 56 | 0 | 0.0 | 1.0 | 0.00 | 0.00 | 0.00 | 92 | 1014.2 |
| 20260510102005 | 56 | 0 | 0.0 | 1.0 | 0.00 | 0.00 | 0.00 | 92 | 1014.1 |
| 20260510101506 | 56 | 0 | 0.0 | 2.0 | 0.00 | 0.00 | 0.00 | 92 | 1014.0 |
| 20260510101006 | 57 | 210 | 0.0 | 2.0 | 0.00 | 0.00 | 0.00 | 92 | 1014.1 |
| 20260510100526 | 57 | 210 | 1.0 | 2.0 | 0.00 | 0.00 | 0.00 | 92 | 1013.9 |
| 20260510100007 | 57 | 0 | 0.0 | 2.0 | 0.00 | 0.00 | 0.00 | 92 | 1013.7 |
| 20260510095505 | 57 | 0 | 0.0 | 2.0 | 0.00 | 0.00 | 0.00 | 92 | 1013.7 |
| 20260510095006 | 57 | 210 | 0.0 | 2.0 | 0.00 | 0.00 | 0.00 | 92 | 1013.6 |
| 20260510094506 | 57 | 210 | 0.0 | 2.0 | 0.00 | 0.00 | 0.00 | 92 | 1013.7 |
| 20260510094006 | 57 | 210 | 1.0 | 2.0 | 0.00 | 0.00 | 0.00 | 92 | 1013.6 |
| 20260510093505 | 58 | 210 | 2.0 | 2.0 | 0.00 | 0.00 | 0.00 | 92 | 1013.5 |
| 20260510093005 | 58 | 210 | 0.0 | 2.0 | 0.00 | 0.00 | 0.00 | 92 | 1013.4 |
| 20260510092507 | 58 | 210 | 1.0 | 2.0 | 0.00 | 0.00 | 0.00 | 92 | 1013.4 |
| 20260510092005 | 58 | 210 | 2.0 | 2.0 | 0.00 | 0.00 | 0.00 | 92 | 1013.3 |
| 20260510091505 | 58 | 0 | 0.0 | 0.0 | 0.00 | 0.00 | 0.00 | 92 | 1013.2 |
| 20260510091005 | 58 | 0 | 0.0 | 0.0 | 0.00 | 0.00 | 0.00 | 92 | 1013.1 |
| 20260510090506 | 58 | 0 | 0.0 | 0.0 | 0.00 | 0.00 | 0.00 | 92 | 1013.1 |
| 20260510090005 | 58 | 0 | 0.0 | 0.0 | 0.00 | 0.00 | 0.00 | 92 | 1013.1 |
| 20260510085506 | 58 | 0 | 0.0 | 0.0 | 0.00 | 0.00 | 0.00 | 92 | 1013.0 |
| 20260510085006 | 58 | 0 | 0.0 | 2.0 | 0.00 | 0.00 | 0.00 | 92 | 1012.8 |
| 20260510084526 | 58 | 0 | 0.0 | 2.0 | 0.00 | 0.00 | 0.00 | 92 | 1012.8 |
| 20260510084005 | 58 | 210 | 0.0 | 2.0 | 0.00 | 0.00 | 0.00 | 92 | 1012.7 |
| 20260510083506 | 58 | 210 | 0.0 | 1.0 | 0.00 | 0.00 | 0.00 | 92 | 1012.7 |
| 20260510083006 | 58 | 0 | 0.0 | 0.0 | 0.00 | 0.00 | 0.00 | 92 | 1012.6 |
| 20260510082506 | 58 | 0 | 0.0 | 0.0 | 0.00 | 0.00 | 0.00 | 92 | 1012.6 |
| 20260510082005 | 58 | 0 | 0.0 | 0.0 | 0.00 | 0.00 | 0.00 | 92 | 1012.7 |
| 20260510081507 | 58 | 0 | 0.0 | 0.0 | 0.00 | 0.00 | 0.00 | 92 | 1012.6 |
| 20260510081027 | 59 | 0 | 0.0 | 0.0 | 0.00 | 0.00 | 0.00 | 92 | 1012.5 |
| 20260510080505 | 59 | 0 | 0.0 | 1.0 | 0.00 | 0.00 | 0.00 | 92 | 1012.5 |
| 20260510080007 | 59 | 0 | 0.0 | 2.0 | 0.00 | 0.00 | 0.00 | 92 | 1012.4 |
| 20260510075507 | 59 | 210 | 0.0 | 2.0 | 0.00 | 0.00 | 0.00 | 92 | 1012.5 |
| 20260510075007 | 59 | 0 | 0.0 | 0.0 | 0.00 | 0.00 | 0.00 | 92 | 1012.4 |
| 20260510074528 | 59 | 0 | 0.0 | 0.0 | 0.00 | 0.00 | 0.00 | 91 | 1012.4 |
| 20260510074005 | 59 | 0 | 0.0 | 1.0 | 0.00 | 0.00 | 0.00 | 92 | 1012.3 |
| 20260510073527 | 59 | 0 | 0.0 | 2.0 | 0.00 | 0.00 | 0.00 | 91 | 1012.5 |
| 20260510073006 | 59 | 210 | 1.0 | 2.0 | 0.00 | 0.00 | 0.00 | 91 | 1012.5 |
| 20260510072506 | 59 | 0 | 0.0 | 0.0 | 0.00 | 0.00 | 0.00 | 91 | 1012.4 |
| 20260510072005 | 59 | 0 | 0.0 | 0.0 | 0.00 | 0.00 | 0.00 | 91 | 1012.3 |
| 20260510071505 | 59 | 0 | 0.0 | 0.0 | 0.00 | 0.00 | 0.00 | 91 | 1012.3 |
| 20260510071006 | 60 | 0 | 0.0 | 1.0 | 0.00 | 0.00 | 0.00 | 91 | 1012.2 |
| 20260510070505 | 60 | 0 | 0.0 | 1.0 | 0.00 | 0.00 | 0.00 | 91 | 1012.4 |
| 20260510070005 | 60 | 0 | 0.0 | 1.0 | 0.00 | 0.00 | 0.00 | 91 | 1012.2 |
| 20260510065506 | 60 | 0 | 0.0 | 2.0 | 0.00 | 0.00 | 0.00 | 91 | 1012.3 |
| 20260510065006 | 60 | 210 | 0.0 | 2.0 | 0.00 | 0.00 | 0.00 | 91 | 1012.3 |
| 20260510064506 | 60 | 0 | 0.0 | 1.0 | 0.00 | 0.00 | 0.00 | 91 | 1012.2 |
| 20260510064006 | 60 | 210 | 0.0 | 1.0 | 0.00 | 0.00 | 0.00 | 91 | 1012.3 |
| 20260510063506 | 60 | 0 | 0.0 | 2.0 | 0.00 | 0.00 | 0.00 | 91 | 1012.3 |
| 20260510063006 | 60 | 0 | 0.0 | 2.0 | 0.00 | 0.00 | 0.00 | 91 | 1012.3 |
| 20260510062505 | 60 | 210 | 0.0 | 2.0 | 0.00 | 0.00 | 0.00 | 91 | 1012.3 |
| 20260510062006 | 60 | 210 | 0.0 | 3.0 | 0.00 | 0.00 | 0.00 | 91 | 1012.4 |
| 20260510061506 | 60 | 210 | 1.0 | 3.0 | 0.00 | 0.00 | 0.00 | 91 | 1012.5 |
| 20260510061005 | 60 | 210 | 0.0 | 2.0 | 0.00 | 0.00 | 0.00 | 91 | 1012.5 |
| 20260510060507 | 60 | 210 | 0.0 | 1.0 | 0.00 | 0.00 | 0.00 | 91 | 1012.3 |
| 20260510060027 | 60 | 0 | 0.0 | 1.0 | 0.00 | 0.00 | 0.00 | 89 | 1012.4 |
| 20260510055506 | 60 | 210 | 0.0 | 1.0 | 0.00 | 0.00 | 0.00 | 89 | 1012.4 |
| 20260510055028 | 60 | 0 | 0.0 | 2.0 | 0.00 | 0.00 | 0.00 | 89 | 1012.4 |
| 20260510054506 | 60 | 0 | 0.0 | 2.0 | 0.00 | 0.00 | 0.00 | 89 | 1012.3 |
| 20260510054005 | 61 | 210 | 0.0 | 2.0 | 0.00 | 0.00 | 0.00 | 89 | 1012.5 |
| 20260510053506 | 61 | 0 | 0.0 | 2.0 | 0.00 | 0.00 | 0.00 | 89 | 1012.4 |
| 20260510053006 | 61 | 210 | 1.0 | 2.0 | 0.00 | 0.00 | 0.00 | 89 | 1012.4 |
| 20260510052506 | 61 | 210 | 1.0 | 2.0 | 0.00 | 0.00 | 0.00 | 89 | 1012.5 |
| 20260510052007 | 61 | 210 | 2.0 | 2.0 | 0.00 | 0.00 | 0.00 | 89 | 1012.5 |
| 20260510051507 | 61 | 210 | 0.0 | 2.0 | 0.00 | 0.00 | 0.00 | 89 | 1012.5 |
| 20260510051028 | 61 | 210 | 0.0 | 2.0 | 0.00 | 0.00 | 0.00 | 88 | 1012.3 |
| 20260510050528 | 61 | 210 | 2.0 | 2.0 | 0.00 | 0.00 | 0.00 | 88 | 1012.3 |
| 20260510050006 | 62 | 210 | 0.0 | 3.0 | 0.00 | 0.00 | 0.00 | 89 | 1012.3 |
| 20260510045507 | 62 | 210 | 1.0 | 3.0 | 0.00 | 0.00 | 0.00 | 88 | 1012.4 |
| 20260510045005 | 62 | 210 | 1.0 | 3.0 | 0.00 | 0.00 | 0.00 | 88 | 1012.4 |
| 20260510044527 | 62 | 210 | 1.0 | 3.0 | 0.00 | 0.00 | 0.00 | 88 | 1012.4 |
| 20260510044007 | 62 | 210 | 1.0 | 3.0 | 0.00 | 0.00 | 0.00 | 88 | 1012.4 |
| 20260510043527 | 62 | 210 | 2.0 | 3.0 | 0.00 | 0.00 | 0.00 | 88 | 1012.4 |
| 20260510043005 | 62 | 210 | 0.0 | 2.0 | 0.00 | 0.00 | 0.00 | 88 | 1012.4 |
| 20260510042506 | 62 | 210 | 0.0 | 4.0 | 0.00 | 0.00 | 0.00 | 88 | 1012.5 |
| 20260510042006 | 62 | 210 | 1.0 | 4.0 | 0.00 | 0.00 | 0.00 | 88 | 1012.5 |
| 20260510041506 | 62 | 233 | 1.0 | 4.0 | 0.00 | 0.00 | 0.00 | 88 | 1012.6 |
| 20260510041007 | 62 | 0 | 0.0 | 4.0 | 0.00 | 0.00 | 0.00 | 88 | 1012.6 |
| 20260510040506 | 62 | 238 | 0.0 | 4.0 | 0.00 | 0.00 | 0.00 | 88 | 1012.6 |
| 20260510040006 | 62 | 168 | 1.0 | 3.0 | 0.00 | 0.00 | 0.00 | 88 | 1012.6 |
| 20260510035528 | 62 | 168 | 1.0 | 3.0 | 0.00 | 0.00 | 0.00 | 88 | 1012.7 |
| 20260510035006 | 62 | 168 | 1.0 | 2.0 | 0.00 | 0.00 | 0.00 | 87 | 1012.7 |
| 20260510034507 | 62 | 0 | 0.0 | 2.0 | 0.00 | 0.00 | 0.00 | 87 | 1012.7 |
| 20260510034027 | 62 | 168 | 0.0 | 3.0 | 0.00 | 0.00 | 0.00 | 87 | 1012.6 |
| 20260510033506 | 62 | 168 | 1.0 | 3.0 | 0.00 | 0.00 | 0.00 | 86 | 1012.8 |
| 20260510033007 | 63 | 167 | 2.0 | 3.0 | 0.00 | 0.00 | 0.00 | 86 | 1012.7 |
| 20260510032527 | 63 | 0 | 0.0 | 3.0 | 0.00 | 0.00 | 0.00 | 86 | 1012.8 |
| 20260510032006 | 63 | 163 | 0.0 | 5.0 | 0.00 | 0.00 | 0.00 | 86 | 1012.8 |
| 20260510031506 | 63 | 159 | 0.0 | 6.0 | 0.00 | 0.00 | 0.00 | 86 | 1012.8 |
| 20260510031028 | 63 | 159 | 2.0 | 6.0 | 0.00 | 0.00 | 0.00 | 84 | 1012.6 |
| 20260510030527 | 64 | 192 | 2.0 | 6.0 | 0.00 | 0.00 | 0.00 | 84 | 1012.6 |
| 20260510030007 | 64 | 223 | 1.0 | 3.0 | 0.00 | 0.00 | 0.00 | 84 | 1012.6 |
| 20260510025506 | 64 | 0 | 0.0 | 5.0 | 0.00 | 0.00 | 0.00 | 84 | 1012.6 |
| 20260510025007 | 64 | 246 | 3.0 | 5.0 | 0.00 | 0.00 | 0.00 | 84 | 1012.6 |
| 20260510024527 | 64 | 194 | 1.0 | 5.0 | 0.00 | 0.00 | 0.00 | 83 | 1012.7 |
| 20260510024006 | 64 | 229 | 1.0 | 5.0 | 0.00 | 0.00 | 0.00 | 83 | 1012.5 |
| 20260510023507 | 64 | 224 | 1.0 | 5.0 | 0.00 | 0.00 | 0.00 | 83 | 1012.6 |
| 20260510023006 | 64 | 224 | 0.0 | 5.0 | 0.00 | 0.00 | 0.00 | 83 | 1012.6 |
| 20260510022507 | 64 | 235 | 0.0 | 3.0 | 0.00 | 0.00 | 0.00 | 83 | 1012.6 |
| 20260510022006 | 64 | 235 | 1.0 | 4.0 | 0.00 | 0.00 | 0.00 | 83 | 1012.4 |
| 20260510021506 | 64 | 236 | 1.0 | 4.0 | 0.00 | 0.00 | 0.00 | 83 | 1012.3 |
| 20260510021006 | 64 | 162 | 1.0 | 5.0 | 0.00 | 0.00 | 0.00 | 83 | 1012.4 |
| 20260510020506 | 64 | 164 | 2.0 | 5.0 | 0.00 | 0.00 | 0.00 | 83 | 1012.4 |
| 20260510020027 | 64 | 196 | 1.0 | 4.0 | 0.00 | 0.00 | 0.00 | 83 | 1012.3 |
| 20260510015507 | 64 | 207 | 2.0 | 4.0 | 0.00 | 0.00 | 0.00 | 83 | 1012.2 |
| 20260510015007 | 64 | 207 | 0.0 | 3.0 | 0.00 | 0.00 | 0.00 | 83 | 1012.2 |
| 20260510014506 | 64 | 207 | 1.0 | 3.0 | 0.00 | 0.00 | 0.00 | 83 | 1012.1 |
| 20260510014006 | 64 | 207 | 1.0 | 5.0 | 0.00 | 0.00 | 0.00 | 83 | 1012.1 |
| 20260510013506 | 64 | 207 | 0.0 | 5.0 | 0.00 | 0.00 | 0.00 | 83 | 1011.9 |
| 20260510013006 | 64 | 207 | 1.0 | 4.0 | 0.00 | 0.00 | 0.00 | 83 | 1011.9 |
| 20260510012506 | 64 | 151 | 1.0 | 3.0 | 0.00 | 0.00 | 0.00 | 83 | 1011.8 |
| 20260510012006 | 64 | 150 | 1.0 | 2.0 | 0.00 | 0.00 | 0.00 | 82 | 1011.8 |
| 20260510011507 | 64 | 0 | 0.0 | 2.0 | 0.00 | 0.00 | 0.00 | 82 | 1011.8 |
| 20260510011006 | 65 | 150 | 0.0 | 2.0 | 0.00 | 0.00 | 0.00 | 81 | 1011.6 |
| 20260510010506 | 65 | 150 | 0.0 | 6.0 | 0.00 | 0.00 | 0.00 | 81 | 1011.6 |
| 20260510010006 | 65 | 150 | 0.0 | 6.0 | 0.00 | 0.00 | 0.00 | 79 | 1011.4 |
| 20260510005506 | 66 | 150 | 1.0 | 5.0 | 0.00 | 0.00 | 0.00 | 79 | 1011.3 |
| 20260510005006 | 66 | 150 | 1.0 | 3.0 | 0.00 | 0.00 | 0.00 | 78 | 1011.3 |
| 20260510004507 | 66 | 0 | 0.0 | 0.0 | 0.00 | 0.00 | 0.00 | 78 | 1011.3 |
| 20260510004006 | 66 | 0 | 0.0 | 4.0 | 0.00 | 0.00 | 0.00 | 77 | 1011.3 |
| 20260510003506 | 67 | 150 | 0.0 | 6.0 | 0.00 | 0.00 | 0.00 | 76 | 1011.0 |
| 20260510003027 | 67 | 149 | 3.0 | 6.0 | 0.00 | 0.00 | 0.00 | 75 | 1010.8 |
| 20260510002506 | 67 | 156 | 3.0 | 6.0 | 0.00 | 0.00 | 0.00 | 75 | 1010.8 |
| 20260510002005 | 67 | 167 | 0.0 | 2.0 | 0.00 | 0.00 | 0.00 | 75 | 1010.8 |
| 20260510001506 | 68 | 167 | 0.0 | 5.0 | 0.00 | 0.00 | 0.00 | 75 | 1010.6 |
| 20260510001006 | 68 | 171 | 2.0 | 6.0 | 0.00 | 0.00 | 0.00 | 74 | 1010.6 |
| 20260510000527 | 68 | 184 | 1.0 | 6.0 | 0.00 | 0.00 | 0.00 | 72 | 1010.5 |
| 20260510000006 | 69 | 172 | 1.0 | 6.0 | 0.00 | 0.00 | 0.00 | 72 | 1010.5 |
| 20260509235506 | 69 | 175 | 2.0 | 6.0 | 0.00 | 0.00 | 0.00 | 71 | 1010.5 |
| 20260509235006 | 69 | 153 | 4.0 | 8.0 | 0.00 | 0.00 | 0.00 | 71 | 1010.6 |
| 20260509234505 | 69 | 152 | 3.0 | 8.0 | 0.00 | 0.00 | 0.00 | 70 | 1010.5 |
| 20260509234006 | 69 | 159 | 3.0 | 7.0 | 0.00 | 0.00 | 0.00 | 70 | 1010.5 |
| 20260509233506 | 70 | 165 | 1.0 | 9.0 | 0.00 | 0.00 | 0.00 | 71 | 1010.5 |
| 20260509233004 | 70 | 174 | 2.0 | 5.0 | 0.00 | 0.00 | 0.00 | 70 | 1010.4 |
| 20260509232503 | 70 | 198 | 1.0 | 9.0 | 0.00 | 0.00 | 0.00 | 70 | 1010.4 |
| 20260509232003 | 70 | 193 | 2.0 | 10.0 | 0.00 | 0.00 | 0.00 | 69 | 1010.4 |
| 20260509231504 | 70 | 201 | 3.0 | 10.0 | 0.00 | 0.00 | 0.00 | 69 | 1010.4 |
| 20260509231025 | 70 | 230 | 4.0 | 13.0 | 0.00 | 0.00 | 0.00 | 69 | 1010.4 |
| 20260509230505 | 70 | 178 | 6.0 | 13.0 | 0.00 | 0.00 | 0.00 | 69 | 1010.4 |
| 20260509230004 | 70 | 211 | 4.0 | 12.0 | 0.00 | 0.00 | 0.00 | 69 | 1010.4 |
| 20260509225525 | 71 | 186 | 5.0 | 13.0 | 0.00 | 0.00 | 0.00 | 68 | 1010.3 |
| 20260509225003 | 71 | 179 | 4.0 | 13.0 | 0.00 | 0.00 | 0.00 | 68 | 1010.3 |
| 20260509224503 | 71 | 177 | 5.0 | 12.0 | 0.00 | 0.00 | 0.00 | 68 | 1010.3 |
| 20260509224005 | 71 | 171 | 4.0 | 11.0 | 0.00 | 0.00 | 0.00 | 68 | 1010.2 |
| 20260509223504 | 71 | 191 | 3.0 | 11.0 | 0.00 | 0.00 | 0.00 | 68 | 1010.1 |
| 20260509223024 | 71 | 176 | 5.0 | 10.0 | 0.00 | 0.00 | 0.00 | 67 | 1010.0 |
| 20260509222504 | 71 | 217 | 5.0 | 11.0 | 0.00 | 0.00 | 0.00 | 67 | 1009.8 |
| 20260509222025 | 72 | 162 | 5.0 | 12.0 | 0.00 | 0.00 | 0.00 | 67 | 1009.6 |
| 20260509221505 | 72 | 170 | 2.0 | 12.0 | 0.00 | 0.00 | 0.00 | 67 | 1009.9 |
| 20260509221003 | 71 | 175 | 4.0 | 13.0 | 0.00 | 0.00 | 0.00 | 67 | 1010.0 |
| 20260509220504 | 71 | 195 | 5.0 | 13.0 | 0.00 | 0.00 | 0.00 | 65 | 1009.7 |
| 20260509220005 | 72 | 212 | 3.0 | 8.0 | 0.00 | 0.00 | 0.00 | 67 | 1009.8 |
| 20260509215524 | 72 | 224 | 3.0 | 12.0 | 0.00 | 0.00 | 0.00 | 65 | 1009.8 |
| 20260509215003 | 72 | 197 | 5.0 | 12.0 | 0.00 | 0.00 | 0.00 | 64 | 1009.8 |
| 20260509214504 | 72 | 223 | 4.0 | 10.0 | 0.00 | 0.00 | 0.00 | 65 | 1009.8 |
| 20260509214004 | 72 | 172 | 2.0 | 10.0 | 0.00 | 0.00 | 0.00 | 65 | 1009.7 |
| 20260509213504 | 72 | 189 | 4.0 | 10.0 | 0.00 | 0.00 | 0.00 | 65 | 1009.6 |
| 20260509213005 | 72 | 179 | 2.0 | 14.0 | 0.00 | 0.00 | 0.00 | 67 | 1009.7 |
| 20260509212505 | 72 | 170 | 4.0 | 14.0 | 0.00 | 0.00 | 0.00 | 65 | 1009.7 |
| 20260509212004 | 72 | 170 | 5.0 | 16.0 | 0.00 | 0.00 | 0.00 | 65 | 1009.7 |
| 20260509211504 | 72 | 176 | 6.0 | 16.0 | 0.00 | 0.00 | 0.00 | 65 | 1009.7 |
| 20260509211025 | 72 | 206 | 5.0 | 12.0 | 0.00 | 0.00 | 0.00 | 65 | 1009.8 |
| 20260509210525 | 72 | 211 | 4.0 | 12.0 | 0.00 | 0.00 | 0.00 | 64 | 1009.8 |
| 20260509210004 | 72 | 165 | 6.0 | 12.0 | 0.00 | 0.00 | 0.00 | 65 | 1009.6 |
| 20260509205505 | 72 | 228 | 7.0 | 14.0 | 0.00 | 0.00 | 0.00 | 64 | 1009.7 |
| 20260509205004 | 72 | 190 | 6.0 | 14.0 | 0.00 | 0.00 | 0.00 | 64 | 1009.8 |
| 20260509204504 | 73 | 176 | 8.0 | 14.0 | 0.00 | 0.00 | 0.00 | 64 | 1009.9 |
| 20260509204005 | 72 | 210 | 6.0 | 10.0 | 0.00 | 0.00 | 0.00 | 64 | 1009.9 |
| 20260509203504 | 72 | 226 | 3.0 | 11.0 | 0.00 | 0.00 | 0.00 | 65 | 1009.8 |
| 20260509203003 | 73 | 204 | 5.0 | 11.0 | 0.00 | 0.00 | 0.00 | 64 | 1009.9 |
| 20260509202526 | 73 | 174 | 4.0 | 14.0 | 0.00 | 0.00 | 0.00 | 63 | 1010.0 |
| 20260509202004 | 73 | 183 | 6.0 | 19.0 | 0.00 | 0.00 | 0.00 | 64 | 1009.9 |
| 20260509201504 | 72 | 221 | 4.0 | 19.0 | 0.00 | 0.00 | 0.00 | 65 | 1010.1 |
| 20260509201025 | 72 | 173 | 6.0 | 15.0 | 0.00 | 0.00 | 0.00 | 67 | 1010.0 |
| 20260509200504 | 72 | 173 | 6.0 | 15.0 | 0.00 | 0.00 | 0.00 | 67 | 1009.8 |
| 20260509200004 | 72 | 164 | 9.0 | 15.0 | 0.00 | 0.00 | 0.00 | 65 | 1010.0 |
| 20260509195504 | 71 | 156 | 10.0 | 13.0 | 0.00 | 0.00 | 0.00 | 65 | 1009.9 |
| 20260509195005 | 71 | 173 | 6.0 | 12.0 | 0.00 | 0.00 | 0.00 | 68 | 1010.0 |
| 20260509194504 | 71 | 181 | 3.0 | 13.0 | 0.00 | 0.00 | 0.00 | 67 | 1010.1 |
| 20260509194004 | 71 | 175 | 6.0 | 15.0 | 0.00 | 0.00 | 0.00 | 67 | 1010.2 |
| 20260509193505 | 72 | 172 | 6.0 | 15.0 | 0.00 | 0.00 | 0.00 | 67 | 1010.0 |
| 20260509193004 | 72 | 163 | 5.0 | 16.0 | 0.00 | 0.00 | 0.00 | 65 | 1010.0 |
| 20260509192504 | 71 | 168 | 9.0 | 16.0 | 0.00 | 0.00 | 0.00 | 68 | 1010.2 |
| 20260509192004 | 71 | 171 | 9.0 | 14.0 | 0.00 | 0.00 | 0.00 | 68 | 1010.4 |
| 20260509191505 | 70 | 161 | 6.0 | 14.0 | 0.00 | 0.00 | 0.00 | 68 | 1010.4 |
| 20260509191003 | 71 | 209 | 4.0 | 12.0 | 0.00 | 0.00 | 0.00 | 67 | 1010.4 |
| 20260509190504 | 71 | 171 | 8.0 | 12.0 | 0.00 | 0.00 | 0.00 | 65 | 1010.4 |
| 20260509190004 | 71 | 203 | 6.0 | 11.0 | 0.00 | 0.00 | 0.00 | 68 | 1010.3 |
| 20260509185504 | 71 | 186 | 2.0 | 11.0 | 0.00 | 0.01 | 0.00 | 67 | 1010.4 |
| 20260509185004 | 71 | 161 | 6.0 | 11.0 | 0.00 | 0.01 | 0.00 | 68 | 1010.6 |
| 20260509184504 | 70 | 168 | 7.0 | 13.0 | 0.00 | 0.01 | 0.00 | 68 | 1010.6 |
| 20260509184004 | 70 | 164 | 7.0 | 13.0 | 0.00 | 0.01 | 0.00 | 69 | 1010.7 |
| 20260509183505 | 69 | 237 | 5.0 | 14.0 | 0.00 | 0.01 | 0.00 | 68 | 1010.6 |
| 20260509183005 | 70 | 178 | 4.0 | 14.0 | 0.00 | 0.01 | 0.00 | 69 | 1010.7 |
| 20260509182504 | 70 | 227 | 4.0 | 12.0 | 0.00 | 0.02 | 0.00 | 68 | 1010.9 |
| 20260509182004 | 70 | 169 | 6.0 | 12.0 | 0.00 | 0.02 | 0.00 | 68 | 1010.7 |
| 20260509181504 | 70 | 199 | 4.0 | 11.0 | 0.00 | 0.02 | 0.00 | 68 | 1010.8 |
| 20260509181004 | 69 | 228 | 6.0 | 11.0 | 0.00 | 0.02 | 0.00 | 68 | 1010.7 |
| 20260509180505 | 69 | 178 | 2.0 | 12.0 | 0.00 | 0.02 | 0.00 | 69 | 1010.9 |
| 20260509180004 | 70 | 229 | 6.0 | 13.0 | 0.00 | 0.02 | 0.00 | 67 | 1010.9 |
| 20260509175504 | 70 | 195 | 3.0 | 13.0 | 0.00 | 0.02 | 0.00 | 68 | 1011.0 |
| 20260509175004 | 70 | 167 | 3.0 | 8.0 | 0.00 | 0.02 | 0.00 | 69 | 1011.0 |
| 20260509174504 | 70 | 265 | 2.0 | 10.0 | 0.00 | 0.02 | 0.00 | 69 | 1011.0 |
| 20260509174025 | 69 | 178 | 1.0 | 10.0 | 0.00 | 0.02 | 0.00 | 70 | 1011.0 |
| 20260509173504 | 69 | 182 | 2.0 | 8.0 | 0.00 | 0.02 | 0.00 | 68 | 1011.0 |
| 20260509173003 | 69 | 200 | 2.0 | 12.0 | 0.00 | 0.02 | 0.00 | 69 | 1011.1 |
| 20260509172504 | 69 | 185 | 3.0 | 12.0 | 0.00 | 0.02 | 0.00 | 69 | 1011.0 |
| 20260509172004 | 69 | 172 | 6.0 | 10.0 | 0.00 | 0.02 | 0.00 | 68 | 1011.2 |
| 20260509171526 | 69 | 192 | 3.0 | 11.0 | 0.00 | 0.02 | 0.00 | 70 | 1011.2 |
| 20260509171025 | 68 | 161 | 2.0 | 11.0 | 0.00 | 0.02 | 0.00 | 71 | 1011.2 |